Skip Page Navigation
NASA JPL Caltech
NASA Logo - Jet Propulsion Laboratory + View the NASA Portal
+ Near-Earth Object (NEO) Project
Search JPL
JPL Home Earth Solar System Stars & Galaxies Technology
JPL Solar System Dynamics
BODIES ORBITS EPHEMERIDES TOOLS PHYSICAL DATA DISCOVERY FAQ SITE MAP
JPL Small-Body Database Browser
Search: [ help ]  
132798 Kurti (2002 PU167)
Classification: Main-belt Asteroid          SPK-ID: 2132798
Ephemeris | Orbit Diagram | Orbital Elements | Physical Parameters | Discovery Circumstances ]

[ show orbit diagram ]
Orbital Elements at Epoch 2455200.5 (2010-Jan-04.0) TDB
Reference: MPO154028 (heliocentric ecliptic J2000)
 Element Value Uncertainty (1-sigma)   Units 
e 0.0890672 n/a  
a 2.5696087 n/a AU
q 2.3407408 n/a AU
i 4.61101 n/a deg
node 131.30765 n/a deg
peri 115.82651 n/a deg
M 343.08731 n/a deg
tp 2455271.1820472
(2010-Mar-15.68204720)
n/a JED
period 1504.5233495
4.12
n/a
n/a
d
yr
n 0.23927844 n/a deg/d
Q 2.7984766 n/a AU
  Orbit Determination Parameters
   # obs. used (total)      68  
   first obs. used      2002-??-??  
   last obs. used      2009-02-21  
   # oppositions      6  
   planetary ephem.      DE403  
   quality code      0  
   fit RMS      0.37  
   data source      MPC:mpu  
   producer      MPC  

Additional Information
 T_jup = 3.420 

Ephemeris | Orbit Diagram | Orbital Elements | Physical Parameters | Discovery Circumstances ]

Physical Parameter Table
Parameter Symbol Value Units Sigma Reference Notes
absolute magnitude H 16.5 mag n/a MPO154028  

132798 Kürti           Discovered 2002 Aug. 8 by NEAT at Palomar.
Stefan Kürti (b. 1960) is a Slovakian amateur astronomer with a focus on minor planets. Among his discoveries are two near-earth objects. The name was suggested by M. Langbroek.
NOTE: some special characters may not display properly (any characters within {} are an attempt to place the proper accent above a character)
Reference: 20081113/MPCPages.arcLast Updated: 2008-11-17
Ephemeris | Orbit Diagram | Orbital Elements | Physical Parameters | Discovery Circumstances ]
ABOUT SSD CREDITS/AWARDS PRIVACY/COPYRIGHT GLOSSARY LINKS
FirstGov 2010-Feb-10 06:18 UT
(server date/time)  
NASA Home Page
Site Manager:   Donald K. Yeomans
Webmaster  Alan B. Chamberlin